GALAXY 18 (G-18)

Last updated on Sun Jun 21 2026 00:03:04 GMT+0000 (Coordinated Universal Time)

1 32951U 08024A 26171.39489199 .00000021 00000+0 00000+0 0 9994 2 32951 0.0235 71.4002 0002919 16.2942 200.0680 1.00271433 45883
UTC large
Height (km)
Speed (km/s)
/
Latitude / Longitude
Inclination (degrees)
Orbital Period (minutes)
Azimuth
Elevation
Range (km)
Doppler Factor

Next 0 passes for location: London (51.5072 / 0.1276)

No passes found over London.
GALAXY 18 (G-18)